EW1297 Weather Reports


time (UTC)temp
F
wind
direction
speed
knots
gust
knots
rain 1hr
in
rain 24hr
in
rain mn
in
humidity
%
barometer
mb
20260510202116 70 0.0 0.0 0.00 0.10 0.00 58 1013.2
20260510201156 71 0.0 0.0 0.00 0.10 0.00 59 1013.0
20260510200115 72 0.0 0.0 0.00 0.10 0.00 59 1013.1
20260510195116 73 0.0 0.0 0.00 0.11 0.00 56 1013.1
20260510194115 73 113 0.9 1.7 0.00 0.11 0.00 54 1013.2
20260510193115 74 0.0 0.9 0.00 0.11 0.00 58 1013.1
20260510192116 73 0.0 0.0 0.00 0.11 0.00 57 1013.1
20260510191115 73 0.0 0.0 0.00 0.11 0.00 64 1013.3
20260510190115 72 0.0 0.0 0.00 0.11 0.00 66 1013.3
20260510185116 72 0.0 0.9 0.00 0.11 0.00 64 1013.3
20260510184115 72 0.0 0.0 0.00 0.11 0.00 61 1013.3
20260510183136 73 0.0 0.0 0.00 0.11 0.00 63 1013.3
20260510182115 72 0.0 0.0 0.00 0.12 0.00 64 1013.3
20260510181115 72 0.0 0.0 0.00 0.12 0.00 64 1013.4
20260510180115 73 0.0 0.0 0.00 0.12 0.00 65 1013.4
20260510175115 74 0.0 0.0 0.00 0.12 0.00 62 1013.4
20260510174115 74 90 0.9 1.7 0.00 0.12 0.00 61 1013.2
20260510173115 74 0.0 1.7 0.00 0.14 0.00 64 1013.1
20260510172115 73 0.0 0.9 0.00 0.14 0.00 66 1013.3
20260510171115 72 0.0 1.7 0.00 0.14 0.00 67 1013.1
20260510170115 72 68 0.9 2.6 0.00 0.14 0.00 70 1013.3
20260510165115 71 0.0 0.9 0.00 0.14 0.00 73 1013.3
20260510164115 70 0.0 0.0 0.00 0.14 0.00 75 1013.5
20260510163115 69 68 0.9 1.7 0.00 0.14 0.00 76 1013.6
20260510162115 69 90 0.9 1.7 0.00 0.14 0.00 75 1013.6
20260510161115 68 0.0 0.9 0.00 0.14 0.00 77 1013.7
20260510160115 67 0.0 0.9 0.00 0.14 0.00 81 1013.7
20260510155115 66 0.0 0.0 0.00 0.14 0.00 84 1013.5
20260510154115 64 0.0 0.9 0.00 0.14 0.00 84 1013.7
20260510153137 63 0.0 0.9 0.00 0.14 0.00 85 1013.9
20260510152117 62 113 0.9 2.6 0.00 0.14 0.00 87 1013.8
20260510151117 61 0.0 0.9 0.00 0.14 0.00 90 1013.7
20260510150117 60 0.0 0.0 0.00 0.14 0.00 91 1013.8
20260510145118 59 0.0 0.0 0.00 0.14 0.00 91 1014.0
20260510144117 59 0.0 0.9 0.00 0.14 0.00 91 1013.9
20260510143137 59 0.0 0.0 0.00 0.14 0.00 92 1013.8
20260510142117 58 0.0 0.9 0.00 0.14 0.00 93 1013.7
20260510141117 57 0.0 1.7 0.00 0.14 0.00 93 1013.8
20260510140117 57 0.0 1.7 0.00 0.14 0.00 94 1013.5
20260510135117 56 0.0 0.9 0.00 0.14 0.00 94 1013.6
20260510134117 56 0.0 0.0 0.00 0.14 0.00 94 1013.5
20260510133117 56 0.0 0.0 0.00 0.14 0.00 95 1013.6
20260510132137 55 0.0 0.0 0.00 0.14 0.00 95 1013.5
20260510131117 55 0.0 0.0 0.00 0.14 0.00 95 1013.4
20260510130117 55 0.0 0.9 0.00 0.14 0.00 95 1013.3
20260510125117 55 0.0 0.0 0.00 0.14 0.00 95 1013.0
20260510124117 55 0.0 0.0 0.00 0.14 0.00 95 1013.1
20260510123117 54 0.0 0.0 0.00 0.14 0.00 95 1013.1
20260510122117 54 0.0 0.0 0.00 0.14 0.00 95 1012.8
20260510121117 54 0.0 0.0 0.00 0.14 0.00 95 1012.8
20260510120117 54 0.0 0.0 0.00 0.14 0.00 96 1012.7
20260510115117 53 0.0 0.0 0.00 0.14 0.00 95 1012.8
20260510114117 53 0.0 0.0 0.00 0.14 0.00 95 1012.7
20260510113117 53 0.0 0.0 0.00 0.14 0.00 96 1012.6
20260510112137 53 0.0 0.0 0.00 0.14 0.00 95 1012.4
20260510111117 52 0.0 0.0 0.00 0.14 0.00 95 1012.4
20260510110117 52 0.0 0.0 0.00 0.14 0.00 96 1012.1
20260510105117 52 0.0 0.0 0.00 0.14 0.00 95 1011.9
20260510104117 51 0.0 0.0 0.00 0.14 0.00 95 1012.0
20260510103137 51 0.0 0.0 0.00 0.14 0.00 95 1012.0
20260510102117 51 0.0 0.0 0.00 0.14 0.00 95 1012.1
20260510101117 51 0.0 0.0 0.00 0.14 0.00 95 1011.9
20260510100116 51 0.0 0.0 0.00 0.14 0.00 95 1012.2
20260510094116 51 0.0 0.0 0.00 0.14 0.00 95 1012.2
20260510093117 51 0.0 0.0 0.00 0.14 0.00 95 1012.2
20260510092117 52 0.0 0.0 0.00 0.14 0.00 95 1012.2
20260510091117 52 0.0 0.0 0.00 0.14 0.00 95 1012.3
20260510090117 52 0.0 0.0 0.00 0.14 0.00 95 1012.5
20260510085137 52 0.0 0.0 0.00 0.14 0.00 95 1012.5
20260510084116 52 0.0 0.0 0.00 0.14 0.00 95 1012.6
20260510083116 52 0.0 0.0 0.00 0.14 0.00 95 1012.4
20260510082117 52 0.0 0.0 0.00 0.14 0.00 95 1012.3
20260510081137 52 0.0 0.0 0.00 0.14 0.00 95 1011.9
20260510080136 51 0.0 0.0 0.00 0.14 0.00 95 1011.7
20260510075116 51 0.0 0.0 0.00 0.14 0.00 95 1011.6
20260510074117 51 0.0 0.0 0.00 0.14 0.00 95 1011.5
20260510073137 52 0.0 0.0 0.00 0.14 0.00 95 1011.5
20260510072116 52 0.0 0.0 0.00 0.14 0.00 95 1011.5
20260510071136 52 0.0 0.0 0.00 0.14 0.00 95 1011.5
20260510070116 51 0.0 0.0 0.00 0.14 0.00 95 1011.6
20260510065116 51 0.0 0.0 0.00 0.14 0.00 95 1011.6
20260510064116 51 0.0 0.0 0.00 0.14 0.00 95 1011.7
20260510063141 51 0.0 0.0 0.00 0.14 0.00 95 1011.6
20260510062716 51 0.0 0.0 0.00 0.14 0.00 95 1011.5
20260510061716 50 0.0 0.0 0.00 0.14 0.00 95 1011.4
20260510060716 50 0.0 0.0 0.00 0.14 0.00 95 1011.2
20260510055716 50 0.0 0.0 0.00 0.14 0.00 94 1011.3
20260510054736 50 0.0 0.0 0.00 0.14 0.00 94 1011.5
20260510053716 50 0.0 0.0 0.00 0.14 0.00 94 1011.4
20260510052716 50 0.0 0.0 0.00 0.14 0.00 94 1011.6
20260510051716 50 0.0 0.0 0.00 0.14 0.00 94 1011.5
20260510050736 50 0.0 0.0 0.00 0.14 0.00 94 1011.5
20260510045736 50 0.0 0.0 0.00 0.14 0.00 94 1011.6
20260510044716 50 0.0 0.0 0.00 0.14 0.00 94 1011.6
20260510043716 50 0.0 0.0 0.00 0.14 0.00 94 1011.7
20260510042756 50 0.0 0.0 0.00 0.14 0.00 94 1011.8
20260510041716 49 0.0 0.0 0.00 0.14 0.00 94 1011.7
20260510040716 50 0.0 0.0 0.00 0.14 0.00 94 1011.6
20260510035736 50 0.0 0.0 0.00 0.14 0.14 94 1011.5
20260510034716 50 0.0 0.0 0.00 0.14 0.14 94 1011.5
20260510033717 50 0.0 0.0 0.00 0.14 0.14 94 1011.4
20260510032716 50 0.0 0.0 0.00 0.14 0.14 94 1011.2
20260510031736 50 0.0 0.0 0.00 0.14 0.14 94 1011.3
20260510030736 50 0.0 0.0 0.00 0.14 0.14 94 1011.2
20260510025716 50 0.0 0.0 0.00 0.14 0.14 94 1011.2
20260510024757 50 0.0 0.0 0.00 0.14 0.14 94 1011.2
20260510023716 51 0.0 0.0 0.00 0.14 0.14 94 1011.2
20260510022716 51 0.0 0.0 0.00 0.14 0.14 94 1011.3
20260510021716 51 0.0 0.0 0.00 0.14 0.14 94 1011.3
20260510020736 51 0.0 0.0 0.00 0.14 0.14 94 1011.3
20260510015716 51 0.0 0.0 0.00 0.14 0.14 94 1011.2
20260510014716 51 0.0 0.0 0.00 0.14 0.14 93 1011.2
20260510013716 51 0.0 0.0 0.00 0.14 0.14 93 1011.1
20260510012716 51 0.0 0.0 0.00 0.14 0.14 93 1011.2
20260510011716 51 0.0 0.0 0.00 0.14 0.14 93 1011.0
20260510010716 52 0.0 0.0 0.00 0.14 0.14 93 1011.0
20260510005716 52 0.0 0.0 0.00 0.14 0.14 93 1010.8
20260510004736 52 0.0 0.0 0.00 0.14 0.14 93 1010.7
20260510003716 53 0.0 0.0 0.00 0.14 0.14 93 1010.6
20260510002716 53 0.0 0.0 0.00 0.14 0.14 93 1010.5
20260510001756 53 0.0 0.0 0.00 0.14 0.14 93 1010.5
20260510000716 54 0.0 0.0 0.00 0.14 0.14 93 1010.6
20260509235716 54 0.0 0.0 0.00 0.14 0.14 93 1010.5
20260509234716 54 0.0 0.0 0.00 0.14 0.14 93 1010.4
20260509233716 55 0.0 0.0 0.00 0.14 0.14 93 1010.3
20260509232716 55 0.0 0.0 0.00 0.14 0.14 93 1010.1
20260509231716 55 0.0 0.0 0.00 0.14 0.14 93 1010.2
20260509230716 55 0.0 0.0 0.01 0.14 0.14 93 1010.4
20260509225716 55 0.0 0.0 0.02 0.14 0.14 93 1010.5
20260509224716 55 0.0 0.0 0.03 0.14 0.14 93 1010.5
20260509223716 55 0.0 0.0 0.04 0.14 0.14 93 1010.7
20260509222716 55 0.0 0.0 0.05 0.14 0.14 92 1010.7
20260509221736 55 0.0 0.0 0.07 0.14 0.14 92 1010.8
20260509220716 55 0.0 0.0 0.08 0.13 0.13 92 1010.9
20260509215716 55 0.0 0.0 0.08 0.12 0.12 92 1010.9
20260509214716 55 0.0 0.0 0.07 0.11 0.11 91 1010.7
20260509213716 55 0.0 0.0 0.06 0.10 0.10 91 1011.4
20260509212716 55 0.0 0.0 0.05 0.09 0.09 91 1010.9
20260509211716 55 0.0 0.0 0.03 0.07 0.07 90 1010.7
20260509210716 56 0.0 0.0 0.01 0.05 0.05 90 1011.2
20260509205716 56 0.0 0.0 0.00 0.04 0.04 90 1010.8
20260509204716 56 0.0 0.0 0.01 0.04 0.04 90 1010.7
20260509203736 56 0.0 0.0 0.01 0.04 0.04 89 1011.0
20260509202716 56 0.0 0.0 0.01 0.04 0.04 90 1011.0